Sherman Airfield (FLV)
Ft Leavenworth, KS
Field Elevation: 772
Lat: 39°22.10N  Long: 94°54.89W
CTAF/Unicom Freq: 126.2000
   
    
Weather Advisories
3/4/2015 20:09 Z
Altimeter 30.31" Hg
Wind 360° @ 9 KT
Gusts --
Visibility 10 SM
Temperature -3° C (27° F)
Dewpoint -17° C (1° F)
Relative Humidity 34%
Density Altitude --
Condensation Altitude 7,400 feet
Wind Chill -8° C (18° F)
  Wind and Runways
Indicated Runway = 34
History
 
 
More Info
All DigiWx sites map
Weather Radar
NOAA Forecast
 
Airport IQ 5010
(K68) Garnett Municipal
(GRE) Greenville
 
about DigiWx
 
FAA Disclaimer: The data displayed is for advisory purposes only and is not to be used for flight planning or operations. For official data, please call (not available) to hear the current automated AWOS voice message.
  METAR FLV 042009Z AUTO 36009KT 10SM M03/M17 A3031